Regional Weather Roundup
Issued by NWS

Home | Current Version | Previous Version | Graphics & Text | Print | Product List | Glossary On
Versions: 1 2 3 4 5 6 7 8 9 10 11 12 13 14 15 16 17 18 19 20 21 22 23 24 25 26 27
000
ASUS45 KBOU 250907
RWRCO

WEATHER ROUNDUP FOR COLORADO
NATIONAL WEATHER SERVICE DENVER/BOULDER CO
200 AM MST SAT FEB 25 2017

NOTE: "FAIR" INDICATES FEW OR NO CLOUDS BELOW 12000 FEET WITH NO
SIGNIFICANT WEATHER AND/OR OBSTRUCTIONS TO VISIBILITY.

COZ001>005-013-030-031-251000-
...NORTHWEST COLORADO...

CITY           SKY/WX    TMP DP  RH WIND       PRES   REMARKS
CRAIG          CLOUDY     9   4  80 CALM      30.07S
HAYDEN         FAIR       9   3  78 CALM      30.04S
MEEKER         CLOUDY    12   9  87 CALM      30.06R
MOUNT WERNER   NOT AVBL
STEAMBOAT SPGS CLOUDY     7   4  87 CALM      30.02S VSB 3/4
WALDEN         NOT AVBL
$$

COZ006>008-011-251000-
...WEST CENTRAL VALLEYS...

CITY           SKY/WX    TMP DP  RH WIND       PRES   REMARKS
GRAND JUNCTION FAIR      17  15  92 E3        30.10S
MONTROSE       FAIR      16  11  80 SE10      30.11F WCI   4
EAGLE          FAIR      12   8  84 E8        30.05S WCI   0
RIFLE          FAIR      12   8  84 CALM      30.10R
DELTA          CLOUDY    21  14  74 NE6       30.11S WCI  13
NUCLA          FAIR      18   9  68 SE8       30.12S WCI   7
$$

COZ017>023-064>068-251000-
...SOUTHWEST COLORADO...

CITY           SKY/WX    TMP DP  RH WIND       PRES   REMARKS
DURANGO        FAIR      15   8  73 CALM      30.04S
CORTEZ         FAIR      15  11  83 E5        30.09R WCI   8
PAGOSA SPRINGS FAIR       7   0  73 CALM      30.02S
TELLURIDE      CLOUDY     8   3  80 SE6       29.99S WCI  -2
WOLF CREEK PAS FAIR      -4  -6  92 SW9       29.89F WCI -20
$$

COZ009-010-012-014-032>034-037-058>063-251000-
...CENTRAL COLORADO...

CITY           SKY/WX    TMP DP  RH WIND       PRES   REMARKS
ASPEN          FAIR       8   4  83 SW6       29.98R WCI  -2
BUENA VISTA    FAIR      14  -3  46 W9        29.95S WCI   2
COPPER MTN     MOCLDY     1  -8  66 MISG      29.76S HAZE
BERTHOUD PASS  CLOUDY    -9 -18  64 NW22G32   29.70S HAZE    WCI -35
COTTONWOOD PAS FAIR      10  -8  44 W18G28    29.86S WCI  -8
GUNNISON       FAIR       4   2  91 CALM      30.02S
KREMMLING      FAIR      14   7  73 CALM      29.99F
LEADVILLE      LGT SNOW   3  -3  76 N10       29.85F WCI -12
MONARCH PASS   CLOUDY    -2  -8  78 W32G38    29.89S WCI -30
SALIDA         FAIR      19  -1  41 W10       30.05S WCI   7
SUNLIGHT       NOT AVBL
WILKERSON PASS FAIR       0  -6  78 SW10G18   29.81F WCI -17
$$

COZ069>075-251000-
...SAN LUIS VALLEY/SANGRE DE CRISTO MOUNTAINS...

CITY           SKY/WX    TMP DP  RH WIND       PRES   REMARKS
ALAMOSA        FAIR      13   7  77 N6        29.99S WCI   4
LA VETA PASS   FAIR       5   1  85 SW6       29.87F WCI  -6
SAGUACHE       FAIR      10   3  72 CALM      29.99S
$$

COZ035-036-038>040-251000-
...NORTHERN COLORADO FRONT RANGE...

CITY           SKY/WX    TMP DP  RH WIND       PRES   REMARKS
DENVER INTL AP FAIR      19  13  77 SW9       29.97F WCI   8
DMNS CITY PARK   N/A     19  14  80 SE3       29.98F
AURORA         MOCLDY    16  13  88 S10       29.97F WCI   3
FRONT RANGE AP FAIR      21  18  86 SW9       29.97F WCI  11
ERIE MUNI ARPT FAIR      14  12  91 CALM      29.98F
BOULDER MUN AP FAIR      14  10  85 CALM      29.97F
CENTENNIAL     FAIR      17  11  77 S8        29.96F WCI   7
BROOMFIELD     FAIR      19  10  68 W7        29.97F WCI  10
FORT COLLINS   FAIR      13   9  84 N5        29.99F WCI   5
LONGMONT       FAIR      14  10  82 CALM      30.00F
$$

COZ041-046-047-076>085-087-088-251000-
...PIKES PEAK/PALMER DIVIDE AND SOUTHERN FOOTHILLS...

CITY           SKY/WX    TMP DP  RH WIND       PRES   REMARKS
COLO. SPRINGS  MOCLDY    14   8  77 SE7       30.01F WCI   4
A. F. ACADEMY  CLOUDY    14  10  85 S3        29.97S
SCHRIEVER AFB  FAIR      12   9  85 S6        30.00  WCI   3
ELLICOTT       LGT RAIN N/A N/A N/A S6        29.99F
FALCON         LGT SNOW  12  10  92 SW3       29.98F
FORT CARSON    MOCLDY    14   8  78 S9        30.01S WCI   1
LIMON          CLOUDY    17  15  92 S8        30.00F WCI   7
MONUMENT HILL  FAIR       9   5  85 S10       29.96S WCI  -6
TRINIDAD       FAIR      12   5  73 W6        30.02F WCI   3
$$

COZ042>045-048>051-090-091-251000-
...NORTHEAST COLORADO...

CITY           SKY/WX    TMP DP  RH WIND       PRES   REMARKS
GREELEY ARPT   FAIR      11   8  88 N3        30.01F
AKRON          FAIR      16  10  77 SW10      30.00F WCI   4
BURLINGTON     FAIR      14  11  87 SW5       30.06F WCI   6
WRAY           NOT AVBL
STERLING       FAIR       7   3  85 SW5       30.02F WCI  -2
HOLYOKE        FAIR      10   5  79 SW7       30.05F WCI   0
FORT MORGAN    FAIR      13  10  87 SW5       30.02F WCI   5
$$

COZ086-089-092>099-251000-
...SOUTHEAST COLORADO...

CITY           SKY/WX    TMP DP  RH WIND       PRES   REMARKS
PUEBLO         FAIR      20  11  68 E6        30.06F WCI  12
LA JUNTA       CLOUDY    23  15  71 S6        30.09F WCI  16
LAMAR          CLOUDY    24  18  77 S6        30.10F WCI  17
SPRINGFIELD      N/A      5   3  91 W5        30.08F WCI  -4
$$




USA.gov is the U.S. government's official web portal to all federal, state and local government web resources and services.